Miscellaneous Local Product
Issued by NWS North Platte, NE

Home | Current Version | Previous Version | Graphics & Text | Print | Product List | Glossary On
Versions: 1 2 3 4 5 6 7 8 9 10 11 12 13 14 15 16 17 18 19 20 21 22 23 24 25 26 27 28 29 30 31 32 33 34 35 36 37 38 39 40 41 42 43 44 45 46 47 48 49 50
000
AXUS43 KLBF 010410
MISLBF


WESTERN AND NORTH CENTRAL NEBRASKA HOURLY WEATHER ROUNDUP
NATIONAL WEATHER SERVICE NORTH PLATTE NE
1000 PM CST SAT JAN 31 2015

***STATIONS NOT REPORTING VARIABLES SUCH AS SKY/WEATHER OR
PRESSURE ARE PROVIDED BY THE NEBRASKA DEPARTMENT OF
ROADS...RAWS...AND APRS NETWORKS...AND ARE NOT UNDER
NATIONAL WEATHER SERVICE QUALITY CONTROL***

...OBSERVATIONS IN AND NEAR THE EASTERN PANHANDLE OF NEBRASKA...

CITY           SKY/WX    TMP DP  RH WIND       PRES   REMARKS
PINE RIDGE     LGT SNOW  18  15  88 N9        30.05R FOG     WCI   7
CHADRON        LGT SNOW  20  18  92 N13       30.06R VSB 1   WCI   7
ALLIANCE       CLOUDY    19  15  84 N17       29.96R WCI   4
SIDNEY         CLOUDY    24  21  88 N16       29.91R WCI  11
WHITECLAY        N/A     17  14  88 N8          N/A  WCI   6
CRESCENT LAKE    N/A     19  16  89 N10G17      N/A  WCI   7
LISCO            N/A     25  19  76 NW6         N/A  WCI  18
LEWELLEN         N/A     20  18  93 E9          N/A  WCI   9
$$

...OBSERVATIONS IN NORTH CENTRAL NEBRASKA...

CITY           SKY/WX    TMP DP  RH WIND       PRES   REMARKS
VALENTINE      LGT SNOW  16  12  84 N14       30.04R VSB 3/4 WCI   2
THEDFORD       LGT SNOW  19  18  93 N13       29.97R WCI   7
AINSWORTH      LGT SNOW  18  15  91 N17       30.00R WCI   2
O`NEILL        LGT SNOW  24  22  93 N15G23    29.97R WCI  11
ORD            LGT SNOW  25  21  85 N17       29.89S FOG     WCI  12
BROKEN BOW     LGT SNOW  22  18  85 N25       29.89R FOG     WCI   5
BROWNLEE         N/A     15  12  88 E15         N/A  WCI   0
VALENTINE NWR    N/A     17  14  89 N10G17      N/A  WCI   5
SPRINGVIEW       N/A     18  16  91 NW9         N/A  WCI   7
HALSEY           N/A     18  17  97 N8G16       N/A  WCI   8
BREWSTER         N/A     23  21  93 N12         N/A  WCI  12
ROSE             N/A     25  25 100 N13         N/A  WCI  13
NEWPORT          N/A     26  26  97 E6          N/A  WCI  20
SARGENT          N/A     22  20  93 N5G13       N/A  WCI  16
COMSTOCK         N/A     29  29  96 N14         N/A  WCI  19
CHAMBERS         N/A     24  22  91 N7G14       N/A  WCI  16
EWING            N/A     26  25  95 N3          N/A
$$

...OBSERVATIONS IN SOUTHWEST NEBRASKA AND FAR NORTHEAST COLORADO...

CITY           SKY/WX    TMP DP  RH WIND       PRES   REMARKS
WRAY           LGT SNOW N/A N/A N/A N14       29.86R
IMPERIAL       LGT SNOW  25  22  88 N20       29.91R VSB 1   WCI  11
OGALLALA       LGT SNOW  23  22  94 N15       29.94R VSB 1   WCI  10
NORTH PLATTE   LGT SNOW  22  18  85 N20G30    29.91R FOG     WCI   7
MCCOOK         LGT SNOW  31  28  89 N17G28    29.85R VSB 1   WCI  19
LEXINGTON      LGT SNOW  27  25  93 N20       29.87R WCI  14
BRADY            N/A     22  19  88 CALM        N/A
GOTHENBURG       N/A     22  20  91 CALM        N/A
CALLAWAY         N/A     20  19  94 N15         N/A  WCI   6
$$

...NORTH PLATTE AREA...

CITY           SKY/WX    TMP DP  RH WIND       PRES   REMARKS
AIRPORT        LGT SNOW  22  18  85 N20G30    29.91R FOG     WCI   7
DOWNTOWN         N/A     21  19  93 N8G17       N/A  WCI  11
$$

...SOME WEATHER OBSERVATIONS FROM AROUND THE REGION...

CITY           SKY/WX    TMP DP  RH WIND       PRES   REMARKS
DENVER         CLOUDY    33  30  88 NW3       29.87R
LARAMIE        CLOUDY    25  17  72 N17       29.89R WCI  12
CHEYENNE       CLOUDY    28  21  75 N26G37    29.87R WCI  13
SCOTTSBLUFF    CLOUDY    26  24  92 MISG      29.97R
RAPID CITY     LGT SNOW  16  13  88 NE13      30.10R FOG     WCI   2
PIERRE         CLOUDY    12   2  64 NE16G23   30.19R WCI  -5
WINNER         LGT SNOW  17  13  84 N18       30.09R VSB 1   WCI   1
SIOUX FALLS    LGT SNOW  24  21  88 NE20      30.03S VSB 3/4 WCI  10
OMAHA          LGT SNOW  33  32  96 E3        29.90F VSB 1
GRAND ISLAND   LGT SNOW  31  30  96 N9        29.85S FOG     WCI  23
KANSAS CITY    LGT SNOW  33  33 100 SE10      29.90F FOG     WCI  25
WICHITA        LGT RAIN  40  39  97 S13       29.83F FOG     WCI  32
HAYS           CLOUDY    39  34  81 SW3       29.76S
LIBERAL        CLOUDY    41  36  81 W9        29.82R
GOODLAND       FLURRIES  31  31 100 N13       29.83R WCI  21
$$



USA.gov is the U.S. government's official web portal to all federal, state and local government web resources and services.